Location: Observatoire
(46.1952°N, 5.3391°E)
Time: 04:56:11
(UTC+01:00)

Explorer 7 - Pass Details

Date: 18 February 2026
Orbit: 430 x 542 km, 50.2° (Epoch: 7 March)

Event Time Altitude Azimuth Distance (km) Brightness Sun altitude
Rises 20:43:36 0° 293° (WNW) 2,541 11.5 -27.3°
Reaches altitude 10° 20:45:45 10° 290° (WNW) 1,680 10.3 -27.7°
Enters shadow 20:47:54 32° 280° (W) 882 8.4 -28.0°
Maximum altitude 20:49:31 64° 209° (SSW) 559 - -28.3°
Drops below altitude 10° 20:53:26 10° 127° (SE) 1,741 - -29.0°
Sets 20:55:42 0° 125° (SE) 2,644 - -29.3°
